Change the Weather History Date:

Friday, March 2, 2012

  Actual Average Record
Temperature  
Mean Temperature 58 °F 44 °F  
Max Temperature 80 °F 54 °F 80 °F (2012)
Min Temperature 36 °F 34 °F 12 °F (1980)
Degree Days  
Heating Degree Days 7 21  
Month to date heating degree days 20 42  
Since 1 July heating degree days 2823 3338  
Cooling Degree Days 0 0  
Month to date cooling degree days 0 0  
Year to date cooling degree days 0 0  
Growing Degree Days 9 (Base 50)    
Moisture  
Dew Point 51 °F    
Average Humidity 65    
Maximum Humidity 84    
Minimum Humidity 46    
Precipitation  
Precipitation 0.33 in 0.11 in 1.50 in (1948)
Month to date precipitation 0.33 0.23  
Year to date precipitation 6.07 7.82  
Snow  
Snow T in 0.10 in 9.00 in (1960)
Month to date snowfall T 0.1  
Since 1 July snowfall 0.7 8.6  
Snow Depth 0.00 in    
Sea Level Pressure  
Sea Level Pressure 29.55 in    
Wind  
Wind Speed 17 mph (SW)    
Max Wind Speed 46 mph    
Max Gust Speed 59 mph    
Visibility 9 miles    
Events Rain , Thunderstorm    
T = Trace of Precipitation, MM = Missing Value Source: NWS Daily Summary

Daily Weather History Graph

Daily Weather History Graph

Search for Another Location

Airport or City:

Trip Planner

Search our weather history database for the weather conditions in past years. The results will help you decide how hot, cold, wet, or windy it might be!

Date:

Astronomy

Mar. 02, 2012 Rise Set
Actual Time 6:23 AM CST 5:50 PM CST
Civil Twilight 5:57 AM CST 6:16 PM CST
Nautical Twilight 5:27 AM CST 6:46 PM CST
Astronomical Twilight 4:57 AM CST 7:17 PM CST
Moon 12:09 PM CST 2:07 AM CST
Length of Visible Light 12h 18m
Length of Day
11h 26m
Waxing Gibbous, 66% of the Moon is Illuminated
Mar 2
Waxing Gibbous
Mar 8
Full
Mar 14
Last Quarter
Mar 22
New
Mar 30
First Quarter

Hourly Weather History & Observations

Time (CST) Temp. Windchill Dew Point Humidity Pressure Visibility Wind Dir Wind Speed Gust Speed Precip Events Conditions
12:53 AM 59.0 °F - 41.0 °F 51% 29.65 in 10.0 mi South 10.4 mph - N/A   Partly Cloudy
1:53 AM 60.1 °F - 46.0 °F 60% 29.61 in 10.0 mi South 9.2 mph - N/A   Partly Cloudy
2:53 AM 62.1 °F - 52.0 °F 70% 29.58 in 10.0 mi South 12.7 mph 18.4 mph N/A   Clear
3:53 AM 62.1 °F - 55.0 °F 78% 29.56 in 10.0 mi South 6.9 mph - 0.00 in   Partly Cloudy
4:09 AM 62.6 °F - 55.4 °F 77% 29.56 in 10.0 mi South 6.9 mph - N/A   Mostly Cloudy
4:36 AM 64.4 °F - 57.2 °F 77% 29.55 in 10.0 mi South 8.1 mph 17.3 mph N/A   Scattered Clouds
4:53 AM 64.0 °F - 57.9 °F 80% 29.54 in 10.0 mi South 8.1 mph - N/A   Partly Cloudy
5:46 AM 64.4 °F - 59.0 °F 83% 29.53 in 10.0 mi Variable 6.9 mph 17.3 mph N/A   Mostly Cloudy
5:53 AM 64.0 °F - 59.0 °F 84% 29.52 in 10.0 mi SSW 8.1 mph - N/A   Mostly Cloudy
6:53 AM 66.0 °F - 60.1 °F 81% 29.51 in 10.0 mi SSW 12.7 mph 19.6 mph N/A   Overcast
7:22 AM 66.2 °F - 60.8 °F 83% 29.51 in 10.0 mi SSW 11.5 mph 23.0 mph N/A   Overcast
7:53 AM 66.9 °F - 61.0 °F 81% 29.50 in 10.0 mi SSW 10.4 mph 23.0 mph N/A   Overcast
8:12 AM 66.2 °F - 60.8 °F 83% 29.50 in 10.0 mi SSW 12.7 mph 20.7 mph N/A   Overcast
8:31 AM 68.0 °F - 60.8 °F 78% 29.48 in 10.0 mi SSW 11.5 mph 21.9 mph N/A   Overcast
8:53 AM 69.1 °F - 61.0 °F 75% 29.47 in 10.0 mi SSW 16.1 mph 25.3 mph N/A   Overcast
9:41 AM 71.6 °F - 62.6 °F 73% 29.47 in 10.0 mi SW 20.7 mph 28.8 mph N/A   Mostly Cloudy
9:53 AM 72.0 °F - 62.1 °F 71% 29.45 in 10.0 mi SSW 18.4 mph 32.2 mph N/A   Mostly Cloudy
10:53 AM 75.0 °F - 61.0 °F 62% 29.40 in 10.0 mi SW 26.5 mph 46.0 mph N/A   Mostly Cloudy
11:53 AM 78.1 °F - 57.0 °F 48% 29.39 in 10.0 mi SW 34.5 mph 51.8 mph N/A   Mostly Cloudy
12:53 PM 79.0 °F - 57.0 °F 47% 29.34 in 10.0 mi SW 33.4 mph 51.8 mph N/A   Scattered Clouds
1:32 PM 68.0 °F - 55.4 °F 64% 29.41 in 1.8 mi West 43.7 mph 55.2 mph 0.01 in Rain , Thunderstorm Heavy Thunderstorms and Rain
1:41 PM 60.8 °F - 55.4 °F 82% 29.39 in 0.8 mi WSW 35.7 mph 58.7 mph 0.17 in Rain , Thunderstorm Heavy Thunderstorms and Rain
1:53 PM 57.9 °F - 52.0 °F 81% 29.39 in 0.8 mi SW 28.8 mph 54.1 mph 0.33 in Rain , Thunderstorm Heavy Thunderstorms and Rain
1:59 PM 60.8 °F - 51.8 °F 72% 29.40 in 3.0 mi WSW 23.0 mph 50.6 mph 0.00 in Rain , Thunderstorm Light Thunderstorms and Rain
2:20 PM 71.6 °F - 53.6 °F 53% 29.41 in 10.0 mi WSW 24.2 mph 33.4 mph 0.00 in   Partly Cloudy
2:53 PM 75.0 °F - 50.0 °F 41% 29.41 in 10.0 mi West 29.9 mph 39.1 mph 0.00 in   Clear
3:53 PM 64.9 °F - 44.1 °F 47% 29.49 in 10.0 mi NW 26.5 mph 41.4 mph N/A   Clear
4:53 PM 61.0 °F - 39.0 °F 44% 29.58 in 10.0 mi NW 20.7 mph 28.8 mph N/A   Clear
5:53 PM 53.1 °F - 37.9 °F 57% 29.68 in 10.0 mi NW 16.1 mph 33.4 mph N/A   Clear
6:53 PM 46.9 °F - 34.0 °F 61% 29.76 in 10.0 mi NW 24.2 mph 31.1 mph N/A   Partly Cloudy
7:53 PM 43.0 °F 35.1 °F 32.0 °F 65% 29.81 in 10.0 mi NNW 17.3 mph 25.3 mph N/A   Clear
8:53 PM 42.1 °F 35.2 °F 30.9 °F 65% 29.83 in 10.0 mi NNW 12.7 mph 19.6 mph N/A   Clear
9:53 PM 39.9 °F 33.9 °F 30.0 °F 68% 29.85 in 10.0 mi NNW 9.2 mph 24.2 mph N/A   Clear
10:53 PM 39.0 °F 32.8 °F 30.0 °F 70% 29.86 in 10.0 mi NNW 9.2 mph - N/A   Clear
11:53 PM 37.0 °F 34.5 °F 28.9 °F 73% 29.88 in 10.0 mi West 3.5 mph - N/A   Clear